Find Starlink 4067

NORAD ID: 52668 Int'l Des: 2022-053 Owner: SPXS Country: US Constellation: starlink operational
LEOCIRCULAR

現在のビュー

3D地球を読み込み中...

About Starlink 4067

Starlink 4067 (NORAD 52668) is a starlink constellation satellite (v1.5) launched May 18, 2022 by SPXS of US. It operates in LEO, CIRCULAR orbit with a mass of 297.00 kg.

Starlink 4067について

説明を読み込み中...

次回通過

Passes for default location (London). Set your location on the main map for personalized predictions.

高度履歴

Loading altitude history...

軌道要素

1 52668U 22053N 26170.41022849 -.00000271 00000-0 10727-5 0 9998
2 52668 53.1611 57.3716 0001369 93.1767 266.9381 15.08828095226402
Epoch: Jun 19, 2026 • Age: 15 hours

現在のステータス

高度 543.5 km
速度 7.60 km/s
衛星直下点 44.76°N, 91.44°W
打ち上げ日 May 18, 2022
運用期間 4 years
タイプ internet

技術仕様

分類 Payload
質量 297.00 kg
乾燥質量 275.00 kg
総質量 297.00 kg
長さ 0.20 m
直径 2.80 m
スパン 9.00 m
形状 Box + pan
製造者 SPXS
バスタイプ Starlink
フェーズステータス In Orbit
所有者/国 SPXS/US

Most Searched